FW6370 Weather Reports


time (UTC)temp
F
wind
direction
speed
knots
gust
knots
rain 1hr
in
rain 24hr
in
rain mn
in
humidity
%
barometer
mb
20260505173015 71 321 1.7 8.7 0.00 0.00 0.00 51 1015.9
20260505172015 70 320 1.7 8.7 0.00 0.00 0.00 52 1016.1
20260505171036 70 329 1.7 7.0 0.00 0.00 0.00 53 1016.2
20260505170020 69 325 1.7 7.0 0.00 0.00 0.00 56 1016.2
20260505165015 69 2 1.7 5.2 0.00 0.00 0.00 55 1016.4
20260505164015 68 330 1.7 6.1 0.00 0.00 0.00 56 1016.3
20260505163015 68 340 0.9 6.1 0.00 0.00 0.00 56 1016.3
20260505162016 68 6 1.7 5.2 0.00 0.00 0.00 54 1016.3
20260505161015 68 346 1.7 4.3 0.00 0.00 0.00 56 1016.3
20260505153016 63 328 1.7 4.3 0.00 0.00 0.00 71 1016.2
20260505152016 61 65 0.9 4.3 0.00 0.00 0.00 74 1016.2
20260505151017 61 73 0.9 4.3 0.00 0.00 0.00 74 1016.3
20260505125016 49 0.0 0.0 0.00 0.00 0.00 89 1015.7
20260505124016 49 0.0 0.0 0.00 0.00 0.00 89 1015.9
20260505123036 48 0.0 0.0 0.00 0.00 0.00 89 1015.6
20260505122016 48 0.0 0.0 0.00 0.00 0.00 90 1015.7
20260505121016 48 0.0 0.0 0.00 0.00 0.00 91 1015.7
20260505120016 47 0.0 0.0 0.00 0.00 0.00 90 1015.5
20260505115016 47 0.0 0.0 0.00 0.00 0.00 90 1015.5
20260505114016 47 0.0 0.0 0.00 0.00 0.00 89 1015.5
20260505113016 47 0.0 0.0 0.00 0.00 0.00 89 1015.5
20260505112017 47 0.0 0.0 0.00 0.00 0.00 89 1015.5
20260505111016 47 0.0 0.0 0.00 0.00 0.00 89 1015.4
20260505102015 47 0.0 0.0 0.00 0.00 0.00 90 1015.7
20260505101016 47 0.0 0.0 0.00 0.00 0.00 89 1015.6
20260505100016 48 0.0 0.0 0.00 0.00 0.00 88 1016.0
20260505095016 48 0.0 0.0 0.00 0.00 0.00 88 1016.1
20260505094036 48 0.0 0.0 0.00 0.00 0.00 90 1016.0
20260505093016 47 0.0 0.0 0.00 0.00 0.00 90 1016.0
20260505092016 48 0.0 0.0 0.00 0.00 0.00 90 1016.1
20260505091020 47 0.0 0.0 0.00 0.00 0.00 90 1016.1
20260505090016 47 0.0 0.0 0.00 0.00 0.00 90 1016.1
20260505085016 47 0.0 0.0 0.00 0.00 0.00 89 1016.0
20260505084016 48 0.0 0.0 0.00 0.00 0.00 89 1016.0
20260505083016 48 0.0 0.0 0.00 0.00 0.00 89 1016.1
20260505082016 48 0.0 0.0 0.00 0.00 0.00 88 1016.2
20260505081055 48 0.0 0.0 0.00 0.00 0.00 87 1016.0
20260505080016 49 0.0 0.0 0.00 0.00 0.00 87 1016.0
20260505075015 49 0.0 0.0 0.00 0.00 0.00 88 1016.1
20260505074036 48 0.0 0.0 0.00 0.00 0.00 89 1015.9
20260505073035 48 0.0 0.0 0.00 0.00 0.00 88 1015.9
20260505072015 48 0.0 0.0 0.00 0.00 0.00 88 1015.9
20260505071035 48 0.0 0.0 0.00 0.00 0.00 87 1016.0
20260505070015 49 0.0 0.0 0.00 0.00 0.00 87 1016.0
20260505065015 49 0.0 0.0 0.00 0.00 0.00 87 1016.0
20260505064015 49 0.0 0.0 0.00 0.00 0.00 87 1016.0
20260505063015 49 0.0 0.0 0.00 0.00 0.00 88 1016.1
20260505062016 49 0.0 0.0 0.00 0.00 0.00 87 1016.0
20260505061016 49 0.0 0.0 0.00 0.00 0.00 87 1016.0
20260505060015 49 0.0 0.0 0.00 0.00 0.00 87 1016.1
20260505055015 49 0.0 0.0 0.00 0.00 0.00 87 1016.1
20260505054136 50 0.0 0.0 0.00 0.00 0.00 87 1016.2
20260505053015 50 0.0 0.0 0.00 0.00 0.00 88 1016.1
20260505052036 50 0.0 0.0 0.00 0.00 0.00 87 1016.1
20260505051015 50 0.0 0.0 0.00 0.00 0.00 87 1016.2
20260505041056 52 0.0 0.0 0.00 0.00 0.00 84 1015.8
20260505040015 52 0.0 0.0 0.00 0.00 0.00 84 1015.7
20260505035016 52 0.0 0.9 0.00 0.00 0.00 83 1015.5
20260505034036 52 99 0.0 1.7 0.00 0.00 0.00 83 1015.3
20260505033016 52 99 0.0 1.7 0.00 0.00 0.00 82 1015.3
20260505032016 53 99 0.0 1.7 0.00 0.00 0.00 82 1015.4
20260505031017 53 99 0.0 1.7 0.00 0.00 0.00 81 1015.4
20260505030017 54 100 0.0 1.7 0.00 0.00 0.00 81 1015.4
20260505025016 54 100 0.0 0.9 0.00 0.00 0.00 80 1015.3
20260505024016 54 0.0 0.9 0.00 0.00 0.00 79 1015.4
20260505023016 55 100 0.0 0.9 0.00 0.00 0.00 80 1015.3
20260505022016 55 100 0.0 0.9 0.00 0.00 0.00 79 1015.3
20260505021016 56 100 0.0 0.9 0.00 0.00 0.00 78 1015.1
20260505020015 56 0.0 0.0 0.00 0.00 0.00 77 1015.0
20260505015015 57 0.0 0.0 0.00 0.00 0.00 76 1014.9
20260505014016 58 0.0 0.0 0.00 0.00 0.00 75 1014.8
20260505013016 58 0.0 0.0 0.00 0.00 0.00 74 1014.7
20260505012036 59 0.0 0.9 0.00 0.00 0.00 72 1014.5
20260505011021 60 100 0.0 0.9 0.00 0.00 0.00 72 1014.4
20260505010016 61 100 0.0 0.9 0.00 0.00 0.00 70 1014.3
20260505005015 61 100 0.0 0.9 0.00 0.00 0.00 71 1014.1
20260505004016 62 100 0.0 2.6 0.00 0.00 0.00 71 1014.0
20260505003015 63 100 0.0 2.6 0.00 0.00 0.00 68 1014.0
20260505002015 63 100 0.9 2.6 0.00 0.00 0.00 67 1013.9
20260505001015 64 100 1.7 2.6 0.00 0.00 0.00 67 1013.9
20260505000016 65 65 0.9 2.6 0.00 0.00 0.00 66 1013.8
20260504235056 66 35 0.9 4.3 0.00 0.00 0.00 65 1013.8
20260504234016 67 53 0.0 4.3 0.00 0.00 0.00 65 1013.8
20260504233015 67 56 0.9 4.3 0.00 0.00 0.00 63 1013.9
20260504232015 68 62 0.0 1.7 0.00 0.00 0.00 62 1013.9
20260504231016 69 62 0.0 2.6 0.00 0.00 0.00 60 1014.0
20260504230015 70 20 0.9 2.6 0.00 0.00 0.00 58 1014.0
20260504225015 71 299 0.9 5.2 0.00 0.00 0.00 55 1014.2
20260504224015 71 343 0.9 5.2 0.00 0.00 0.00 54 1014.3
20260504223015 71 59 0.9 4.3 0.00 0.00 0.00 52 1014.3
20260504222036 71 350 0.9 4.3 0.00 0.00 0.00 51 1014.2
20260504221015 71 324 0.9 3.5 0.00 0.00 0.00 50 1014.2
20260504220020 72 333 0.9 6.1 0.00 0.00 0.00 49 1014.3
20260504215015 72 357 0.9 6.1 0.00 0.00 0.00 47 1014.4
20260504214015 72 318 0.9 4.3 0.00 0.00 0.00 48 1014.4
20260504213015 73 345 1.7 4.3 0.00 0.00 0.00 45 1014.4
20260504212036 73 326 1.7 4.3 0.00 0.00 0.00 45 1014.4
20260504211036 73 330 1.7 5.2 0.00 0.00 0.00 45 1014.5
20260504210015 73 339 1.7 6.1 0.00 0.00 0.00 44 1014.5
20260504205015 73 358 1.7 7.8 0.00 0.00 0.00 43 1014.6
20260504204015 74 339 1.7 7.8 0.00 0.00 0.00 43 1014.8
20260504203015 74 2 1.7 7.0 0.00 0.00 0.00 42 1014.9
20260504202016 74 357 2.6 6.1 0.00 0.00 0.00 40 1015.0
20260504201015 74 343 1.7 6.1 0.00 0.00 0.00 40 1015.2
20260504200014 73 333 1.7 6.1 0.00 0.00 0.00 41 1015.2
20260504195018 73 339 2.6 5.2 0.00 0.00 0.00 41 1015.3
20260504194015 73 329 1.7 6.1 0.00 0.00 0.00 41 1015.4
20260504193017 73 336 1.7 6.1 0.00 0.00 0.00 43 1015.5
20260504192017 73 329 1.7 6.1 0.00 0.00 0.00 44 1015.7
20260504191017 74 341 1.7 4.3 0.00 0.00 0.00 46 1015.9
20260504190016 74 350 1.7 5.2 0.00 0.00 0.00 45 1016.1
20260504185016 73 332 1.7 5.2 0.00 0.00 0.00 47 1016.2
20260504184017 73 330 2.6 6.1 0.00 0.00 0.00 46 1016.4
20260504183016 73 351 1.7 6.1 0.00 0.00 0.00 42 1016.5
20260504182037 73 322 1.7 3.5 0.00 0.00 0.00 42 1016.6
20260504181057 72 328 1.7 4.3 0.00 0.00 0.00 41 1016.6
20260504180016 72 325 1.7 4.3 0.00 0.00 0.00 43 1016.6
20260504175017 71 330 1.7 4.3 0.00 0.00 0.00 44 1016.7
20260504174016 71 344 1.7 5.2 0.00 0.00 0.00 47 1016.7